SL-4 R/B

Last updated on June 24, 2019, 12:02 a.m. UTC

1 39679U 14021B   19173.84600173  .00000112  00000-0  23926-4 0  9992
2 39679  51.6167 340.4659 0173237 136.3711 225.1106 15.06100840284677

Satellite is not in orbit.